Weather in Myrnohrad

Ukraine / Donetsk Region     48°17′27″N   37°16′05″E
temp.,
°C
wind,
m/s
gust,
m/s
humid.,
%
clouds,
%
prec.,
mm/h
press.,
hPa
HPBL,
m
9 may, sun
sun900:00+7nnw91493100 4.6 1011643
03:00+6nnw71289100 8.4 1013792
06:00+5nw71287100 0.0 1014873
09:00+6nw81176100 0.0 1016988
12:00+11nnw91151100 0.0 10171683
15:00+13nw91041100 0.0 10182500
18:00+11nnw8105370 0.1 10201639
21:00+6nw4116614 0.1 1023290
10 may, mon
mon1000:00+5nw410785 0.0 1024230
03:00+4nw511835 0.0 1025231
06:00+4nw51279100 0.0 1024371
09:00+10nnw71257100 0.0 10231378
12:00+13nnw101241100 0.0 10212294
15:00+13nnw91246100 0.0 10202325
18:00+12nnw91554100 0.0 10191582
21:00+10nnw101764100 0.0 10171295
11 may, tue
tue1100:00+8nnw111982100 0.6 1012967
03:00+9n91694100 1.4 1011933
06:00+9nne71294100 0.9 1012916
09:00+8ne71181100 0.9 10131213
12:00+10ne81069100 0.2 10131398
15:00+9nne81179100 0.6 10141160
18:00+6n6993100 1.3 10121070
21:00+6ese7993100 2.6 10131005
12 may, wed
wed1200:00+7se61091100 1.8 10151091
03:00+7ese51095100 5.0 1015605
06:00+8ese61193100 1.9 1015645
09:00+8ese81493100 2.6 1015861
12:00+9sse81491100 2.6 10171089
15:00+11se8128292 2.7 1017745
18:00+13sse6974100 0.0 1017905
21:00+9se34865 0.0 101747
13 may, thu
thu1300:00+9ese36915 0.0 101685
03:00+9ese36935 0.0 101695
06:00+9ese499092 0.0 1016171
09:00+16ese696478 0.0 1016552
12:00+21se7849100 0.0 10151159
15:00+22se7847100 0.0 10141234
18:00+21ese61060100 0.0 1014787
21:00+16ese512877 0.0 1014257